"Time","Temp","Dewpoint","Humidity","Pressure","Direction","Speed","Gust","Precip","PrecipRate"
"00:04:59","32.1","30.8","95","30.33","117","1","3.5","0.01","0.11"
"00:09:57","32.1","30.8","95","30.33","118","1.5","3.5","0.02","0.11"
"00:14:56","32.1","30.8","95","30.34","119","1.3","3.5","0.05","0.12"
"00:19:57","32.2","30.9","95","30.34","120","0.6","3.5","0.08","0.13"
"00:24:59","32.2","30.9","95","30.34","120","1","3.5","0.11","0.16"
"00:29:57","32.2","30.9","95","30.34","119","0.9","4","0.13","0.17"
"00:34:59","32.1","30.8","95","30.34","123","1.4","4","0.15","0.18"
"00:39:57","32.1","30.8","95","30.34","127","2","4","0.15","0.18"
"00:44:59","32.1","30.8","95","30.34","143","2.2","5","0.15","0.17"
"00:49:57","32","30.7","95","30.31","146","2.7","7","0.15","0.17"
"00:54:59","32.1","30.8","95","30.31","123","3.1","6.9","0.15","0.16"
"00:59:57","32.1","30.8","95","30.31","136","1.4","3.5","0.16","0.16"
"01:04:58","32.1","30.8","95","30.30","160","1.7","4","0.16","0.16"
"01:09:56","32.1","30.8","95","30.30","167","1.6","5","0.16","0.15"
"01:14:58","32.1","30.8","95","30.30","165","1.8","4","0.16","0.14"
"01:19:56","32.1","30.8","95","30.30","146","1.2","3.5","0.16","0.11"
"01:24:57","32.1","30.8","95","30.30","146","1.3","3.5","0.16","0.08"
"01:29:59","32.1","30.8","95","30.30","143","1.8","4","0.16","0.05"
"01:34:57","32","30.7","95","30.29","138","2.6","6","0.16","0.03"
"01:39:59","32","30.7","95","30.29","158","1.7","4","0.16","0.01"
"01:44:57","32","30.7","95","30.29","160","1","4","0.16","0.01"
"01:49:59","32","30.7","95","30.28","130","2","4","0.16","0.01"
"01:54:57","32","30.7","95","30.28","146","1.6","6","0.16","0.01"
"01:59:59","32","30.7","95","30.28","160","1","5.8","0.16","0.01"
"02:04:56","32","30.7","95","30.26","159","1","3.5","0.16","0.00"
"02:09:59","32","30.7","95","30.26","159","0.9","3.5","0.16","0.00"
"02:14:57","32","30.7","95","30.27","165","1.8","4","0.16","0.00"
"02:19:59","32","30.7","95","30.27","158","1.8","5","0.16","0.00"
"02:24:57","32","30.7","95","30.27","153","1.5","5","0.16","0.00"
"02:29:56","32","30.7","95","30.27","174","1.2","4","0.16","0.00"
"02:34:58","32.1","30.8","95","30.25","163","1.5","4","0.16","0.00"
"02:39:57","32.1","30.8","95","30.25","147","1.3","3.5","0.16","0.00"
"02:44:59","32.1","30.8","95","30.25","159","1","4","0.16","0.00"
"02:49:57","32.1","30.8","95","30.23","159","1.3","4","0.16","0.00"
"02:54:59","32.1","30.8","95","30.23","161","2.1","5","0.16","0.00"
"02:59:57","32.1","30.8","95","30.23","165","2","5","0.16","0.00"
"03:04:56","32.1","30.8","95","30.21","166","1.3","6","0.16","0.00"
"03:09:57","32.1","30.8","95","30.21","118","3.2","7","0.16","0.00"
"03:14:56","32.1","30.8","95","30.21","137","2.1","5","0.16","0.00"
"03:19:58","32.2","30.9","95","30.20","150","2.4","4","0.16","0.00"
"03:24:56","32.2","30.9","95.2","30.20","169","2","4","0.16","0.00"
"03:29:58","32.2","31","95.4","30.20","147","2.2","6","0.16","0.00"
"03:34:56","32.2","31.1","95.6","30.18","153","2.7","6","0.16","0.00"
"03:39:59","32.2","31.1","95.7","30.18","116","3.2","7","0.16","0.00"
"03:44:57","32.2","31.2","95.8","30.18","127","3.2","10.4","0.16","0.00"
"03:49:59","32.2","31.2","96","30.16","125","2.7","5","0.16","0.00"
"03:54:57","32.2","31.2","95.9","30.16","141","2.6","7","0.16","0.00"
"03:59:58","32.2","31.2","95.9","30.16","140","2.9","7","0.16","0.00"
"04:04:56","32.2","31.2","95.8","30.15","145","2.6","6","0.16","0.00"
"04:09:57","32.2","31.2","95.8","30.15","167","1.7","5","0.16","0.00"
"04:14:56","32.2","31.2","95.8","30.15","152","2.7","6","0.16","0.00"
"04:19:58","32.3","31.3","96","30.15","133","2.7","6","0.16","0.00"
"04:24:56","32.2","31.1","95.7","30.15","163","3.2","6","0.16","0.00"
"04:29:58","32.3","31.3","96","30.15","153","2","6","0.16","0.00"
"04:34:56","32.3","31.3","96","30.14","127","2.2","6","0.16","0.00"
"04:39:58","32.3","31.3","96","30.14","135","2.1","5","0.16","0.00"
"04:44:56","32.3","31.3","96","30.14","139","3.1","5","0.16","0.00"
"04:49:58","32.3","31.3","96","30.11","139","1.9","4.6","0.16","0.00"
"04:54:56","32.4","31.4","96","30.11","137","1.8","5","0.16","0.00"
"04:59:58","32.4","31.4","96","30.12","131","1.7","4","0.16","0.00"
"05:04:56","32.4","31.4","96","30.12","150","1.2","4","0.16","0.00"
"05:09:58","32.5","31.5","96","30.12","153","1.9","4","0.16","0.00"
"05:14:56","32.5","31.5","96","30.12","150","1.6","4","0.16","0.00"
"05:19:58","32.5","31.5","96","30.09","168","1.5","4","0.16","0.00"
"05:24:56","32.5","31.5","96","30.09","163","1.8","4","0.16","0.00"
"05:29:58","32.5","31.5","96","30.11","188","3.6","9.2","0.16","0.00"
"05:34:57","32.5","31.5","96","30.11","161","1.8","5","0.16","0.00"
"05:39:56","32.5","31.5","96","30.11","191","2.2","5","0.16","0.00"
"05:44:58","32.6","31.6","96","30.11","176","2.3","5","0.16","0.00"
"05:49:56","32.5","31.5","96","30.10","185","2.4","5","0.16","0.00"
"05:54:58","32.5","31.5","96","30.10","163","2.3","6","0.16","0.00"
"05:59:56","32.5","31.5","96","30.10","142","1.6","4","0.16","0.00"
"06:04:57","32.5","31.5","96","30.08","165","3.3","10.4","0.16","0.00"
"06:09:56","32.5","31.5","96","30.08","129","2.8","6","0.16","0.00"
"06:14:58","32.5","31.5","96","30.08","204","2.8","8.1","0.16","0.00"
"06:19:56","32.5","31.5","96","30.08","199","1.9","5","0.16","0.00"
"06:24:59","32.5","31.5","96","30.08","187","1.6","5","0.16","0.00"
"06:29:57","32.5","31.5","96","30.08","188","1.8","3.5","0.16","0.00"
"06:34:59","32.5","31.5","96","30.06","177","2.3","5","0.16","0.00"
"06:39:58","32.5","31.5","96","30.06","194","2.2","6","0.16","0.00"
"06:44:56","32.5","31.5","96","30.06","213","1.8","5","0.16","0.00"
"06:49:58","32.5","31.5","96","30.05","199","2.5","6","0.16","0.00"
"06:54:56","32.5","31.5","96","30.05","200","1.3","6","0.17","0.01"
"06:59:58","32.5","31.5","96","30.05","160","1.9","3.5","0.17","0.01"
"07:04:56","32.5","31.5","96","30.04","162","1.7","3.5","0.17","0.01"
"07:09:58","32.5","31.5","96","30.04","133","0.9","3.5","0.17","0.01"
"07:14:57","32.6","31.6","96","30.05","189","2.3","5","0.17","0.01"
"07:19:59","32.6","31.6","96","30.05","210","2.2","4","0.17","0.01"
"07:24:57","32.7","31.7","96","30.05","172","1.5","4","0.17","0.01"
"07:29:59","32.7","31.7","96","30.05","171","1.6","5","0.17","0.01"
"07:34:57","32.7","31.7","96","30.04","147","1.2","3.5","0.17","0.01"
"07:39:59","32.7","31.7","96","30.04","192","2.4","5","0.18","0.02"
"07:44:58","32.8","31.8","96","30.07","190","1.7","5","0.18","0.02"
"07:49:59","32.9","31.9","96","30.07","299","3","7","0.18","0.02"
"07:54:57","33","32","96","30.07","317","2.2","6","0.18","0.02"
"07:59:59","33.1","32.1","96","30.10","265","1.3","3.5","0.19","0.02"
"08:04:56","33.2","32.2","96","30.10","235","1.7","4","0.19","0.02"
"08:09:58","33.2","32.2","96","30.10","161","1.6","5","0.20","0.03"
"08:14:56","33.3","32.3","96","30.10","119","1.8","4.6","0.20","0.03"
"08:19:58","33.3","32.3","96","30.06","114","1.8","6","0.20","0.03"
"08:24:56","33.3","32.3","96","30.06","146","1.5","4","0.20","0.03"
"08:29:58","33.3","32.3","96","30.07","146","1.4","3.5","0.21","0.04"
"08:34:56","33.4","32.4","96","30.07","146","0.9","2.3","0.21","0.04"
"08:39:58","33.7","32.8","96.7","30.07","154","1.3","5","0.21","0.04"
"08:44:58","34","33.2","97","30.07","179","2.6","5","0.21","0.03"
"08:49:59","34.2","33.4","97","30.06","195","1.3","4","0.21","0.03"
"08:54:57","34.1","33.2","96.2","30.06","191","1.7","4","0.21","0.03"
"08:59:59","34.1","33.1","96","30.06","158","1.4","4","0.21","0.03"
"09:04:56","34.1","33.1","96","30.06","178","1.8","5","0.21","0.02"
"09:09:58","34.3","33.4","96.4","30.06","199","2.3","4","0.21","0.02"
"09:14:57","34.4","33.4","96","30.07","189","2.3","6","0.21","0.01"
"09:19:58","34.5","33.5","96","30.07","186","2.3","4","0.21","0.01"
"09:24:56","34.5","33.5","96","30.07","193","3.7","6","0.21","0.01"
"09:29:58","34.5","33.5","96","30.07","191","2.9","6","0.21","0.01"
"09:34:56","34.6","33.6","96","30.06","195","3.2","6","0.21","0.00"
"09:39:58","34.6","33.6","96","30.06","193","3.6","7","0.21","0.00"
"09:44:56","34.8","33.9","96.6","30.06","195","1.9","5","0.21","0.00"
"09:49:58","35","34","96.2","30.03","212","2.4","5","0.21","0.00"
"09:54:59","35.3","34.4","96.9","30.03","200","3.4","6","0.21","0.00"
"09:59:57","35.5","34.7","97","30.04","219","2.6","5","0.21","0.00"
"10:04:58","35.7","34.9","96.8","30.04","200","2.5","5","0.21","0.00"
"10:09:56","35.8","34.9","96.2","30.04","209","2.7","5","0.21","0.00"
"10:14:59","35.9","34.9","96.1","30.06","246","2.4","4","0.21","0.00"
"10:19:56","35.9","34.9","96","30.06","239","2.9","4.6","0.21","0.00"
"10:24:58","35.9","34.9","96","30.06","221","2.6","5","0.21","0.00"
"10:29:56","35.9","34.9","96","30.08","188","2.3","4","0.21","0.00"
"10:34:58","35.9","34.9","96","30.08","218","2","4","0.21","0.00"
"10:39:57","36.2","35.2","96","30.08","241","2.5","4","0.21","0.00"
"10:44:59","36.4","35.5","96.5","30.08","275","2.2","4","0.21","0.00"
"10:49:56","36.6","35.6","96","30.08","319","1.8","4","0.21","0.00"
"10:54:58","36.9","36","96.3","30.08","314","2.6","6","0.21","0.00"
"10:59:56","37.1","36.1","96","30.09","317","3.3","6","0.21","0.00"
"11:04:53","37.3","36.3","96","30.09","330","2.7","5","0.21","0.00"
"11:09:59","37.7","36.8","96.2","30.09","335","1.5","7","0.21","0.00"
"11:14:57","38.1","37.1","96","30.09","347","2.1","5","0.21","0.00"
"11:19:59","38.5","37.5","96","30.09","312","1","4","0.21","0.00"
"11:24:56","39.1","38.2","96.3","30.09","259","1.3","4","0.21","0.00"
"11:29:58","40","39","96.3","30.09","246","1.4","5","0.21","0.00"
"11:34:56","40.6","39.5","96","30.08","331","1.4","4.6","0.21","0.00"
"11:39:59","41.4","40.3","96","30.08","299","1.7","4","0.21","0.00"
"11:44:57","42.3","41.2","96","30.08","213","1.5","4","0.21","0.00"
"11:49:58","43.4","42.4","96.4","30.08","285","2.5","6","0.21","0.00"
"11:54:56","44","42.5","94.3","30.08","215","2.3","4","0.21","0.00"
"11:59:58","44.2","42.2","92.8","30.08","213","2.3","5","0.21","0.00"
"12:04:56","44.5","42.6","92.8","30.08","213","2.1","4","0.21","0.00"
"12:09:58","44.5","42","91.2","30.08","212","1.1","3.5","0.21","0.00"
"12:14:56","44.7","42.5","92","30.08","209","1.1","3.5","0.21","0.00"
"12:19:58","45.3","43.4","93","30.08","209","1.3","3.5","0.21","0.00"
"12:24:59","46.3","44.2","92.5","30.08","209","1","3.5","0.21","0.00"
"12:29:56","47","44.6","91.3","30.08","205","1.8","5","0.21","0.00"
"12:34:57","47.9","45.3","90.7","30.07","202","2.4","4.6","0.21","0.00"
"12:39:59","48.3","45","88.3","30.07","198","1.9","4","0.21","0.00"
